EW8310 Weather Reports


Display with metric or nautical units.
time (UTC)temp
F
wind
direction
speed
MPH
gust
MPH
rain 1hr
in
rain 24hr
in
rain mn
in
humidity
%
barometer
mb
20260831220304 76 165 1.0 4.0 0.01 0.89 0.89 77 1011.2
20260831215542 75 124 0.0 6.0 0.02 0.89 0.89 80 1011.2
20260831215042 73 102 0.0 9.0 0.02 0.89 0.89 82 1011.3
20260831214541 73 131 1.0 9.0 0.02 0.89 0.89 80 1011.3
20260831214041 72 102 4.0 7.0 0.03 0.89 0.89 81 1011.5
20260831213541 71 83 1.0 6.0 0.03 0.89 0.89 84 1011.5
20260831213040 71 116 1.0 4.0 0.03 0.89 0.89 86 1011.6
20260831212541 70 113 0.0 0.0 0.04 0.89 0.89 88 1011.7
20260831212040 70 39 0.0 0.0 0.04 0.89 0.89 87 1012.1
20260831211806 70 39 0.0 7.0 0.05 0.89 0.89 86 1012.2
20260831211040 70 76 2.0 10.0 0.07 0.89 0.89 85 1012.2
20260831210541 69 20 4.0 10.0 0.08 0.88 0.88 85 1012.5
20260831210041 69 99 3.0 7.0 0.10 0.88 0.88 86 1012.7
20260831205800 69 109 1.0 7.0 0.10 0.87 0.87 86 1013.0
20260831205039 69 63 0.0 7.0 0.12 0.87 0.87 87 1013.3
20260831204540 69 90 3.0 9.0 0.12 0.87 0.87 87 1013.3
20260831204040 69 63 3.0 9.0 0.12 0.86 0.86 87 1013.6
20260831203539 69 93 4.0 9.0 0.13 0.86 0.86 88 1013.8
20260831203521 69 89 3.0 7.0 0.13 0.86 0.86 88 1014.1
20260831202539 69 94 0.0 3.0 0.13 0.85 0.85 89 1014.2
20260831202039 69 83 0.0 10.0 0.16 0.85 0.85 88 1014.6
20260831201540 69 72 3.0 10.0 0.17 0.84 0.84 89 1014.6
20260831201039 69 66 0.0 3.0 0.15 0.82 0.82 91 1014.9
20260831200759 69 123 0.0 6.0 0.15 0.80 0.80 90 1015.1
20260831200038 69 72 2.0 6.0 0.15 0.78 0.79 91 1015.1
20260831195539 69 90 2.0 9.0 0.24 0.77 0.77 91 1015.3
20260831195040 69 90 2.0 9.0 0.24 0.75 0.75 91 1015.5
20260831194801 69 76 2.0 6.0 0.25 0.75 0.75 90 1015.6
20260831194038 69 104 0.0 3.0 0.25 0.74 0.74 89 1015.4
20260831193538 69 66 0.0 3.0 0.27 0.73 0.73 90 1015.5
20260831193039 69 76 0.0 0.0 0.29 0.73 0.73 91 1015.5
20260831192537 69 141 0.0 0.0 0.28 0.72 0.72 90 1015.6
20260831192037 69 100 0.0 3.0 0.25 0.69 0.70 89 1015.4
20260831191538 69 68 0.0 4.0 0.23 0.67 0.68 88 1015.3
20260831191038 69 38 0.0 7.0 0.23 0.67 0.67 88 1015.3
20260831190538 69 61 4.0 7.0 0.21 0.65 0.66 89 1015.1
20260831190038 69 78 0.0 9.0 0.18 0.62 0.62 87 1015.3
20260831185537 69 305 3.0 9.0 0.09 0.53 0.53 86 1015.2
20260831185037 69 265 1.0 7.0 0.07 0.51 0.51 86 1015.4
20260831184537 69 241 3.0 16.0 0.06 0.50 0.50 86 1015.2
20260831184037 70 305 6.0 16.0 0.05 0.49 0.49 84 1015.0
20260831183536 73 306 9.0 15.0 0.02 0.46 0.48 77 1015.1
20260831183036 76 282 8.0 15.0 0.00 0.44 0.44 66 1015.3
20260831182537 77 159 0.0 4.0 0.00 0.44 0.44 67 1015.0
20260831182037 77 166 1.0 4.0 0.00 0.44 0.44 67 1014.4
20260831181536 77 128 0.0 5.0 0.00 0.44 0.44 68 1014.0
20260831181038 77 250 0.0 5.0 0.00 0.44 0.44 68 1013.7
20260831180536 77 216 0.0 1.0 0.00 0.44 0.44 67 1013.5
20260831180036 77 45 0.0 9.0 0.00 0.44 0.44 67 1013.7
20260831175800 76 290 1.0 11.0 0.00 0.44 0.44 68 1013.8
20260831175036 76 257 3.0 19.0 0.00 0.44 0.44 67 1013.7
20260831174536 75 296 7.0 19.0 0.00 0.44 0.44 68 1013.7
20260831174040 74 285 6.0 16.0 0.00 0.44 0.44 69 1013.7
20260831173535 74 290 9.0 18.0 0.00 0.44 0.44 70 1013.7
20260831173036 74 295 11.0 18.0 0.00 0.44 0.44 70 1013.7
20260831172535 74 306 6.0 16.0 0.00 0.44 0.44 71 1013.6
20260831172034 74 296 4.0 17.0 0.00 0.44 0.44 72 1013.5
20260831171535 74 306 8.0 17.0 0.00 0.44 0.44 72 1013.5
20260831171035 74 307 9.0 17.0 0.00 0.44 0.44 72 1013.4
20260831170535 74 312 10.0 18.0 0.00 0.44 0.44 69 1013.4
20260831170035 75 258 8.0 16.0 0.00 0.44 0.44 69 1013.4
20260831165757 75 307 6.0 15.0 0.00 0.44 0.44 69 1013.3
20260831165305 75 292 4.0 12.0 0.00 0.44 0.44 72 1013.4
20260831164534 75 293 2.0 12.0 0.00 0.44 0.44 75 1013.4
20260831164033 75 279 5.0 14.0 0.00 0.44 0.44 76 1013.3
20260831163534 75 272 6.0 14.0 0.00 0.44 0.44 77 1013.3
20260831163034 76 288 2.0 10.0 0.00 0.44 0.44 75 1013.3
20260831162534 76 282 5.0 12.0 0.00 0.44 0.44 75 1013.0
20260831162034 76 281 6.0 12.0 0.00 0.44 0.44 75 1012.9
20260831162015 76 298 6.0 9.0 0.00 0.44 0.44 74 1012.8
20260831161033 76 272 6.0 9.0 0.00 0.44 0.44 74 1012.7
20260831160535 76 283 4.0 9.0 0.00 0.44 0.44 74 1012.6
20260831160034 76 310 4.0 9.0 0.00 0.44 0.44 74 1012.6
20260831155532 76 258 4.0 7.0 0.00 0.44 0.44 74 1012.5
20260831155032 76 286 4.0 7.0 0.00 0.44 0.44 76 1012.4
20260831154750 76 288 0.0 6.0 0.00 0.44 0.44 77 1012.4
20260831154033 76 276 2.0 9.0 0.00 0.44 0.44 79 1012.4
20260831153532 75 290 3.0 9.0 0.00 0.44 0.44 80 1012.5
20260831153033 75 295 3.0 9.0 0.00 0.44 0.44 82 1012.6
20260831152755 74 282 4.0 7.0 0.00 0.44 0.44 82 1012.7
20260831152032 74 272 1.0 4.0 0.00 0.44 0.44 85 1012.7
20260831151532 74 293 1.0 6.0 0.00 0.44 0.44 84 1012.6
20260831151034 74 281 3.0 6.0 0.00 0.44 0.44 84 1012.6
20260831150533 73 296 0.0 2.0 0.00 0.44 0.44 83 1012.4
20260831150249 73 283 0.0 2.0 0.00 0.44 0.44 86 1012.3
20260831145758 73 283 0.0 2.0 0.00 0.44 0.44 86 1012.2
20260831145032 73 203 0.0 1.0 0.00 0.44 0.44 88 1012.1
20260831144531 72 204 0.0 1.0 0.00 0.44 0.44 90 1012.0
20260831144032 71 295 0.0 0.0 0.00 0.44 0.44 92 1011.8
20260831143532 71 295 0.0 0.0 0.00 0.44 0.44 92 1011.7
20260831143031 70 295 0.0 0.0 0.00 0.44 0.44 92 1011.7
20260831142749 70 295 0.0 0.0 0.00 0.44 0.44 92 1011.7
20260831142030 70 357 0.0 0.0 0.00 0.44 0.44 92 1011.7
20260831141531 69 35 0.0 0.0 0.00 0.44 0.44 91 1011.8
20260831141031 69 35 0.0 0.0 0.01 0.44 0.44 92 1011.8
20260831141018 69 35 0.0 0.0 0.02 0.44 0.44 92 1011.8
20260831140032 69 162 0.0 0.0 0.02 0.44 0.44 92 1011.8
20260831135530 69 27 0.0 0.0 0.03 0.44 0.44 91 1012.0
20260831135030 69 27 0.0 0.0 0.03 0.44 0.44 91 1012.0
20260831134749 69 87 0.0 0.0 0.06 0.44 0.44 92 1012.0
20260831134030 69 124 0.0 0.0 0.07 0.44 0.44 91 1012.0
20260831133742 69 155 2.0 9.0 0.08 0.44 0.44 91 1011.7
20260831133629 69 240 0.0 4.0 0.07 0.44 0.44 92 1012.1
20260831132529 69 162 2.0 10.0 0.08 0.44 0.44 91 1011.5
20260831132255 69 97 2.0 12.0 0.09 0.44 0.44 91 1011.5
20260831131530 70 124 3.0 12.0 0.09 0.44 0.44 90 1011.5
20260831131030 70 175 0.0 4.0 0.08 0.43 0.43 89 1011.6
20260831130529 70 107 0.0 10.0 0.07 0.42 0.43 87 1011.6
20260831130029 71 97 2.0 20.0 0.06 0.41 0.42 84 1011.7
20260831125528 72 3 7.0 20.0 0.06 0.41 0.41 77 1011.7
20260831125029 72 307 3.0 14.0 0.07 0.41 0.41 77 1012.0
20260831124529 72 319 7.0 18.0 0.09 0.38 0.38 75 1012.1
20260831124029 72 331 5.0 18.0 0.25 0.37 0.37 77 1012.0
20260831123529 72 288 5.0 11.0 0.34 0.37 0.37 80 1012.2
20260831123029 71 323 3.0 11.0 0.36 0.36 0.36 81 1012.4
20260831123009 71 286 4.0 11.0 0.36 0.36 0.36 82 1012.1
20260831122028 71 312 6.0 10.0 0.35 0.35 0.35 83 1012.0
20260831121528 71 275 3.0 7.0 0.35 0.35 0.35 83 1012.1
20260831121244 71 295 2.0 9.0 0.35 0.35 0.35 84 1012.0
20260831120528 70 283 4.0 9.0 0.35 0.35 0.35 87 1011.8
20260831120028 70 262 4.0 10.0 0.35 0.35 0.35 87 1011.6
20260831115527 70 295 6.0 17.0 0.35 0.35 0.35 87 1011.7
20260831115027 70 286 6.0 17.0 0.34 0.34 0.34 85 1011.6
20260831115014 72 312 8.0 17.0 0.29 0.29 0.32 81 1011.7
20260831114518 74 295 8.0 17.0 0.12 0.12 0.13 75 1011.7
20260831113526 76 305 10.0 17.0 0.03 0.03 0.03 69 1011.4
20260831113027 77 286 7.0 19.0 0.00 0.00 0.00 64 1011.4
20260831112527 79 298 10.0 19.0 0.00 0.00 0.00 60 1011.1
20260831112027 80 274 0.0 0.0 0.00 0.00 0.00 59 1010.4
20260831111527 79 299 0.0 0.0 0.00 0.00 0.00 60 1010.3
20260831111248 79 24 0.0 0.0 0.00 0.00 0.00 60 1010.3
20260831110526 79 25 0.0 0.0 0.00 0.00 0.00 60 1010.2
20260831110025 79 25 0.0 0.0 0.00 0.00 0.00 57 1010.0
20260831105526 80 25 0.0 0.0 0.00 0.00 0.00 58 1009.9
20260831105025 80 25 0.0 0.0 0.00 0.00 0.00 56 1009.7
20260831104526 79 25 0.0 0.0 0.00 0.00 0.00 57 1009.7
20260831104247 78 25 0.0 0.0 0.00 0.00 0.00 59 1009.5
20260831103526 78 25 0.0 0.0 0.00 0.00 0.00 62 1009.5
20260831103025 78 25 0.0 0.0 0.00 0.00 0.00 62 1009.5
20260831102525 78 25 0.0 0.0 0.00 0.00 0.00 62 1009.5
20260831102025 78 25 0.0 0.0 0.00 0.00 0.00 61 1009.5
20260831101544 78 25 0.0 0.0 0.00 0.00 0.00 61 1009.5
20260831101246 79 25 0.0 0.0 0.00 0.00 0.00 60 1009.4
20260831100524 79 25 0.0 0.0 0.00 0.00 0.00 59 1009.6
20260831100025 78 25 0.0 0.0 0.00 0.00 0.00 60 1009.5
20260831095524 78 25 0.0 0.0 0.00 0.00 0.00 59 1009.4
20260831095245 79 25 0.0 0.0 0.00 0.00 0.00 60 1009.4
20260831095007 79 25 0.0 0.0 0.00 0.00 0.00 58 1009.4
20260831094024 78 25 0.0 0.0 0.00 0.00 0.00 60 1009.4
20260831093523 78 25 0.0 0.0 0.00 0.00 0.00 61 1009.4
20260831093023 78 25 0.0 0.0 0.00 0.00 0.00 62 1009.4
20260831092524 78 25 0.0 0.0 0.00 0.00 0.00 61 1009.4
20260831092506 79 25 0.0 0.0 0.00 0.00 0.00 61 1009.2
20260831091523 79 25 0.0 0.0 0.00 0.00 0.00 61 1009.1
20260831091023 79 25 0.0 0.0 0.00 0.00 0.00 60 1009.1
20260831090523 79 25 0.0 0.0 0.00 0.00 0.00 59 1009.2
20260831090024 79 25 0.0 0.0 0.00 0.00 0.00 58 1009.4
20260831085519 80 25 0.0 0.0 0.00 0.00 0.00 58 1009.4
20260831085023 80 25 0.0 0.0 0.00 0.00 0.00 58 1009.4
20260831084523 80 25 0.0 0.0 0.00 0.00 0.00 57 1009.4
20260831084240 80 25 0.0 0.0 0.00 0.00 0.00 55 1009.2
20260831083743 80 25 0.0 0.0 0.00 0.00 0.00 56 1009.4
20260831083022 81 25 0.0 0.0 0.00 0.00 0.00 57 1009.4
20260831082522 81 25 0.0 0.0 0.00 0.00 0.00 57 1009.5
20260831082023 80 25 0.0 0.0 0.00 0.00 0.00 56 1009.6
20260831081523 80 24 0.0 0.0 0.00 0.00 0.00 57 1009.5
20260831081019 80 25 0.0 0.0 0.00 0.00 0.00 58 1009.5
20260831080521 81 25 0.0 0.0 0.00 0.00 0.00 56 1009.6
20260831080022 82 25 0.0 0.0 0.00 0.00 0.00 54 1009.7
20260831075522 82 25 0.0 0.0 0.00 0.00 0.00 53 1009.7
20260831075022 82 24 0.0 0.0 0.00 0.00 0.00 53 1009.8
20260831074522 82 357 0.0 0.0 0.00 0.00 0.00 54 1009.8
20260831074022 82 357 0.0 0.0 0.00 0.00 0.00 54 1009.8
20260831073522 82 357 0.0 0.0 0.00 0.00 0.00 54 1009.7
20260831073017 82 357 0.0 0.0 0.00 0.00 0.00 52 1009.7
20260831072518 83 357 0.0 0.0 0.00 0.00 0.00 52 1009.8
20260831072021 83 357 0.0 0.0 0.00 0.00 0.00 51 1009.8
20260831071523 83 357 0.0 0.0 0.00 0.00 0.00 51 1009.8
20260831071021 84 357 0.0 0.0 0.00 0.00 0.00 50 1009.8
20260831070521 84 357 0.0 0.0 0.00 0.00 0.00 50 1009.8
20260831070241 84 357 0.0 0.0 0.00 0.00 0.00 50 1009.8
20260831065521 84 357 0.0 0.0 0.00 0.00 0.00 50 1009.8
20260831065016 84 357 0.0 0.0 0.00 0.00 0.00 50 1009.8
20260831064517 84 357 0.0 0.0 0.00 0.00 0.00 51 1009.9
20260831064020 84 254 0.0 0.0 0.00 0.00 0.00 50 1009.9
20260831063519 85 254 0.0 0.0 0.00 0.00 0.00 49 1009.9
20260831063020 85 224 0.0 1.0 0.00 0.00 0.00 46 1009.8
20260831062526 86 261 0.0 5.0 0.00 0.00 0.00 46 1009.8
20260831062020 86 254 0.0 6.0 0.00 0.00 0.00 46 1009.8
20260831061520 86 227 1.0 7.0 0.00 0.00 0.00 46 1009.9
20260831061020 86 266 2.0 7.0 0.00 0.00 0.00 46 1009.8
20260831060739 86 285 2.0 4.0 0.00 0.00 0.00 46 1009.8
20260831060016 87 238 0.0 6.0 0.00 0.00 0.00 45 1009.7
20260831055519 87 272 2.0 7.0 0.00 0.00 0.00 45 1009.8
20260831055021 87 276 2.0 9.0 0.00 0.00 0.00 45 1009.8
20260831054518 87 295 1.0 9.0 0.00 0.00 0.00 44 1009.8
20260831054020 87 290 3.0 7.0 0.00 0.00 0.00 44 1009.8
20260831053519 87 295 3.0 10.0 0.00 0.00 0.00 44 1009.7
20260831053018 87 313 4.0 11.0 0.00 0.00 0.00 44 1009.6
20260831052518 87 292 6.0 11.0 0.00 0.00 0.00 43 1009.6
20260831052019 87 276 2.0 12.0 0.00 0.00 0.00 44 1009.5
20260831051519 87 197 5.0 13.0 0.00 0.00 0.00 43 1009.4
20260831051018 87 298 2.0 13.0 0.00 0.00 0.00 43 1009.2
20260831050518 87 317 5.0 13.0 0.00 0.00 0.00 43 1009.2
20260831050018 88 302 5.0 16.0 0.00 0.00 0.00 43 1009.2
20260831045518 88 290 5.0 16.0 0.00 0.00 0.00 43 1009.2
20260831045018 88 300 7.0 12.0 0.00 0.00 0.00 43 1009.4
20260831044519 87 310 7.0 12.0 0.00 0.00 0.00 43 1009.4
20260831044241 88 288 4.0 14.0 0.00 0.00 0.00 43 1009.5
20260831043515 88 266 6.0 14.0 0.00 0.00 0.00 42 1009.6
20260831043248 88 285 5.0 16.0 0.00 0.00 0.00 42 1009.5
20260831043003 88 269 6.0 16.0 0.00 0.00 0.00 42 1009.5
20260831042017 88 320 7.0 14.0 0.00 0.00 0.00 42 1009.5
20260831041740 88 264 6.0 15.0 0.00 0.00 0.00 41 1009.2
20260831041017 88 307 7.0 19.0 0.00 0.00 0.00 41 1009.2
20260831040516 88 286 9.0 19.0 0.00 0.00 0.00 41 1009.2
20260831040012 88 292 7.0 17.0 0.00 0.00 0.00 41 1009.2
20260831035513 88 269 4.0 13.0 0.00 0.00 0.00 40 1009.1
20260831035013 88 314 6.0 17.0 0.00 0.00 0.00 40 1009.1
20260831034517 88 282 7.0 17.0 0.00 0.00 0.00 40 1009.1
20260831034015 89 278 10.0 17.0 0.00 0.00 0.00 40 1009.0
20260831033514 89 278 10.0 17.0 0.00 0.00 0.00 39 1009.0
20260831033015 89 307 10.0 18.0 0.00 0.00 0.00 38 1008.8
20260831032514 89 286 10.0 24.0 0.00 0.00 0.00 37 1008.8
20260831032237 89 309 11.0 24.0 0.00 0.00 0.00 37 1008.6
20260831031514 89 305 10.0 22.0 0.00 0.00 0.00 38 1008.4
20260831031013 89 281 10.0 22.0 0.00 0.00 0.00 38 1008.2
20260831030513 90 298 13.0 22.0 0.00 0.00 0.00 38 1008.1
20260831030015 90 266 9.0 16.0 0.00 0.00 0.00 39 1007.9
20260831025748 91 278 7.0 17.0 0.00 0.00 0.00 38 1007.8
20260831025015 92 302 7.0 17.0 0.00 0.00 0.00 36 1007.8
20260831024515 92 283 2.0 9.0 0.00 0.00 0.00 35 1007.7
20260831024017 92 299 1.0 9.0 0.00 0.00 0.00 35 1007.5
20260831023515 92 264 0.0 5.0 0.00 0.00 0.00 35 1007.4
20260831023011 92 305 1.0 7.0 0.00 0.00 0.00 35 1007.2
20260831022510 92 309 1.0 7.0 0.00 0.00 0.00 35 1007.2
20260831022014 92 307 0.0 5.0 0.00 0.00 0.00 35 1007.1
20260831021514 92 317 0.0 5.0 0.00 0.00 0.00 34 1007.1
20260831021014 92 319 1.0 4.0 0.00 0.00 0.00 34 1007.0
20260831020515 92 296 0.0 3.0 0.00 0.00 0.00 34 1007.0
20260831020014 93 285 0.0 5.0 0.00 0.00 0.00 33 1007.0
20260831015514 93 268 1.0 5.0 0.00 0.00 0.00 33 1006.9
20260831015014 93 334 0.0 5.0 0.00 0.00 0.00 33 1006.9
20260831014734 93 302 1.0 5.0 0.00 0.00 0.00 33 1006.9
20260831014237 93 286 1.0 4.0 0.00 0.00 0.00 33 1006.9
20260831013513 93 317 0.0 4.0 0.00 0.00 0.00 33 1006.6
20260831013242 94 293 0.0 5.0 0.00 0.00 0.00 32 1006.6
20260831012513 94 278 0.0 9.0 0.00 0.00 0.00 32 1006.5
20260831012013 94 0 2.0 9.0 0.00 0.00 0.00 32 1006.6
20260831011513 94 290 1.0 4.0 0.00 0.00 0.00 32 1006.6
20260831011016 94 288 0.0 6.0 0.00 0.00 0.00 32 1006.5
20260831010512 95 330 1.0 7.0 0.00 0.00 0.00 31 1006.6
20260831010009 95 300 2.0 7.0 0.00 0.00 0.00 31 1006.5
20260831005729 96 264 2.0 6.0 0.00 0.00 0.00 30 1006.5
20260831005448 96 290 2.0 6.0 0.00 0.00 0.00 30 1006.5
20260831004512 97 314 0.0 5.0 0.00 0.00 0.00 30 1006.5
20260831004235 97 302 2.0 6.0 0.00 0.00 0.00 30 1006.5
20260831003512 97 343 0.0 6.0 0.00 0.00 0.00 30 1006.6
20260831003012 97 18 1.0 9.0 0.00 0.00 0.00 29 1006.6
20260831002509 97 307 4.0 9.0 0.00 0.00 0.00 29 1006.5
20260831002008 97 276 1.0 9.0 0.00 0.00 0.00 29 1006.6
20260831001508 97 255 3.0 9.0 0.00 0.00 0.00 29 1006.6
20260831001011 98 300 2.0 10.0 0.00 0.00 0.00 29 1006.6
20260831000512 98 258 3.0 10.0 0.00 0.00 0.00 29 1006.6
20260831000011 98 278 4.0 10.0 0.00 0.00 0.00 29 1006.5
20260830235511 98 266 2.0 7.0 0.00 0.00 0.00 29 1006.5
20260830235231 99 295 1.0 7.0 0.00 0.00 0.00 28 1006.5
20260830234511 98 245 2.0 7.0 0.00 0.00 0.00 29 1006.5
20260830234011 98 226 0.0 9.0 0.00 0.00 0.00 30 1006.5
20260830233510 98 244 3.0 9.0 0.00 0.00 0.00 29 1006.6
20260830233007 98 303 2.0 7.0 0.00 0.00 0.00 28 1006.6
20260830232510 99 300 2.0 7.0 0.00 0.00 0.00 28 1006.8
20260830232232 99 226 2.0 10.0 0.00 0.00 0.00 28 1006.8
20260830231510 99 213 3.0 10.0 0.00 0.00 0.00 29 1006.9
20260830231010 99 250 1.0 6.0 0.00 0.00 0.00 28 1007.0
20260830230510 98 217 3.0 9.0 0.00 0.00 0.00 28 1007.1
20260830230010 98 220 2.0 9.0 0.00 0.00 0.00 29 1007.1
20260830225506 97 268 2.0 7.0 0.00 0.00 0.00 30 1007.2
20260830225006 97 275 2.0 10.0 0.00 0.00 0.00 30 1007.3
20260830224506 98 312 6.0 11.0 0.00 0.00 0.00 29 1007.4
20260830224233 98 286 5.0 11.0 0.00 0.00 0.00 29 1007.4
20260830223731 97 224 2.0 10.0 0.00 0.00 0.00 30 1007.5
20260830223009 97 312 1.0 9.0 0.00 0.00 0.00 29 1007.7
20260830222509 97 281 1.0 9.0 0.00 0.00 0.00 30 1007.8
20260830222005 97 254 1.0 10.0 0.00 0.00 0.00 29 1007.7
20260830221505 97 264 2.0 10.0 0.00 0.00 0.00 30 1007.8
20260830221005 97 234 3.0 12.0 0.00 0.00 0.00 30 1007.9